Вернуться в каталог

DMSP 5D-2 F13 DEB

АктивенSSO
NORAD 40526·DEBRIS·🇺🇸 United States

Запущен Mar 24, 1995 с Vandenberg Space Force Base

Loading…

Ближайшие Пролёты (ближайшие 24 часа)

TLE

СвежийSource: Space-Track

Эпоха: Sep 14, 2026, 08:31 UTC

1 40526U 95015DN  26257.35536394  .00003489  00000-0  95329-3 0  9992
2 40526  98.6102 304.7009 0023327  38.6099 321.6756 14.47752491598220

Отслеживайте DMSP 5D-2 F13 DEB в реальном времени с AllMySat

Download on the App Store